Regional Weather Roundup
Issued by NWS

Home | Current Version | Previous Version | Text Only | Print | Product List | Glossary On
Versions: 1 2 3 4 5 6 7 8 9 10 11 12 13 14 15 16 17 18 19 20 21 22 23 24 25 26 27 28 29 30 31 32 33 34 35 36 37 38 39 40 41 42 43 44 45 46 47 48 49 50
556
ASUS43 KDTX 242301
RWRMI
MICHIGAN HOURLY REGIONAL WEATHER ROUNDUP
NATIONAL WEATHER SERVICE DETROIT/PONTIAC MI
700 PM EDT SUN JUL 24 2016

NOTE: "FAIR" INDICATES FEW OR NO CLOUDS BELOW 12,000 FEET WITH NO
SIGNIFICANT WEATHER AND/OR OBSTRUCTION TO VISIBILITY.

MIZ047>049-052>055-059>063-066>070-074>076-081>083-250000-
SOUTHEAST LOWER MICHIGAN

CITY           SKY/WX    TMP DP  RH WIND       PRES   REMARKS
ADRIAN         MOSUNNY   85  75  72 SW8       29.92S HX  93
ALMA           CLOUDY    86  78  77 SW7       29.86S HX  98
ANN ARBOR      MOSUNNY   84  75  74 S7        29.92R HX  92
BAD AXE        CLOUDY    82  69  66 SW8       29.88S
CARO           CLOUDY    82  73  74 S6        29.87S
DETROIT CITY   MOSUNNY   85  72  65 VRB7      29.91F HX  91
DETROIT        CLOUDY    84  71  65 S12       29.93R
FLINT          MOSUNNY   87  74  64 S12       29.89S HX  95
GROSSE ILE     CLOUDY    79  71  77 S8        29.92S
HOWELL         CLOUDY    84  74  72 S7        29.91S HX  91

CITY           SKY/WX    TMP DP  RH WIND       PRES   REMARKS
JACKSON        CLOUDY    85  77  77 SW12      29.91S HX  95
LAMBERTVILLE   PTSUNNY   85  73  67 S6        29.93S HX  91
LANSING        MOSUNNY   85  74  69 SW15      29.89S HX  92
LAPEER         PTSUNNY   82  73  74 S7        29.91S
MASON          PTSUNNY   85  75  73 CALM      29.90F HX  93
MONROE         MOSUNNY   82  74  77 SE5       29.92R
MT. CLEMENS    PTSUNNY   80  72  77 SE8       29.90S
PONTIAC        CLOUDY    82  73  74 S7        29.92S
PORT HOPE        N/A     83  70  64 SW3       29.85F
PORT HURON     CLOUDY    81  73  78 S7        29.91S
TRI CITIES     CLOUDY    83  75  77 S8        29.87R HX  90
MIDLAND        FAIR      83  73  72 S8        29.85S
TROY           MOSUNNY   85  71  63 SW5       29.93S HX  91
SAGINAW HB     PTSUNNY   82  72  69 S9        29.86S
$$
MIZ043>046-050>051-056>058-064>065-071>073-077>080-250000-
SOUTHWEST LOWER MICHIGAN

CITY           SKY/WX    TMP DP  RH WIND       PRES   REMARKS
BATTLE CREEK   PTSUNNY   84  77  79 SW12      29.90F HX  94
BENTON HARBOR  PTSUNNY   88  77  69 SW8       29.87F HX 100
BIG RAPIDS     CLOUDY    84  79  85 SW10G17   29.84F HX  95
COLDWATER      MOSUNNY   86  76  71 SW8       29.91F HX  96
FREMONT        PTSUNNY   83  81  91 SW14G21   29.83F HX  97
HOLLAND        CLOUDY    86  76  71 SW16      29.86S HX  96
GRAND RAPIDS   CLOUDY    86  76  71 SW12      29.86F HX  96
IONIA          FAIR      85  73  67 SW9       29.86F HX  92
KALAMAZOO      CLOUDY    88  75  65 S13       29.89S HX  97
LUDINGTON      CLOUDY    80  75  84 SW16G24   29.80F
MARSHALL       CLOUDY    87  78  74 SW12      29.90S HX  99
MOUNT PLEASANT CLOUDY    86  76  71 SW7       29.84F HX  95
MUSKEGON       CLOUDY    82  76  81 SW16G29   29.84S
$$
MIZ016>042-250000-
NORTHERN LOWER MICHIGAN

CITY           SKY/WX    TMP DP  RH WIND       PRES   REMARKS
ALPENA         CLOUDY    83  69  62 SW8       29.82S
BEAVER ISLAND  CLOUDY    71  69  95 SW9G17    29.79S
BELLAIRE       CLOUDY    81  73  76 CALM      29.80S
CADILLAC       CLOUDY    80  75  84 SW9       29.85S
CHARLEVOIX     CLOUDY    76  74  95 S3        29.82S FOG
FRANKFORT      CLOUDY    76  71  84 SW7       29.81R
GAYLORD        LGT RAIN  76  71  85 S7        29.85S
GRAYLING       CLOUDY    80  73  80 CALM      29.85S
HARBOR SPRINGS HVY RAIN  73  72  96 CALM      29.80S
HOUGHTON LAKE  CLOUDY    81  73  76 S6        29.85F
MANISTEE       CLOUDY    83  76  79 SW8       29.80S HX  91
OSCODA         CLOUDY    80  69  70 SW12      29.85R
PELLSTON       CLOUDY    76  72  87 S3        29.80S FOG
ROGERS CITY    CLOUDY    74  70  87 CALM      29.82S
TRAVERSE CITY  CLOUDY    83  75  77 VRB5      29.78S HX  90
$$
MIZ007>008-015-250000-
EASTERN UPPER MICHIGAN

CITY           SKY/WX    TMP DP  RH WIND       PRES   REMARKS
KINROSS        CLOUDY    72  71  97 VRB6      29.79S
MACKINAC ISLAN RAIN      71  71 100 SW5       29.79F
NEWBERRY       CLOUDY    73  72  97 SW10      29.76F FOG
S. S. MARIE    CLOUDY    73  71  93 SW9       29.78S
MUNISING         N/A     70  68  93 NE9       29.76R
$$
MIZ004>006-011>014-085-250000-
CENTRAL UPPER MICHIGAN

CITY           SKY/WX    TMP DP  RH WIND       PRES   REMARKS
MANISTIQUE     CLOUDY    70  69  97 S9        29.76S
ESCANABA         N/A    N/A N/A N/A MISG        N/A
MENOMINEE      MOSUNNY   85  74  69 VRB5      29.77S HX  92
SAWYER-GWINN   PTSUNNY   75  68  78 E12       29.77R
$$
MIZ001>003-009>011-084-250000-
WESTERN UPPER MICHIGAN

CITY           SKY/WX    TMP DP  RH WIND       PRES   REMARKS
IRON MOUNTAIN  MOSUNNY   85  63  47 W14       29.77S
HOUGHTON       SUNNY     79  60  52 W20G28    29.76S
COPPER HARBOR    N/A     81  61  50 NW10G22   29.72S
IRONWOOD       SUNNY     79  63  57 W13G21    29.82R
$$

ABBREVIATIONS USED IN REMARKS
   TC - TEMPERATURE IN CELSIUS
  WCI - WIND CHILL INDEX
   HX - HEAT INDEX
  VSB - VISIBILITY





USA.gov is the U.S. government's official web portal to all federal, state and local government web resources and services.